COSMOS 2251 DEB, 33768

Orbit data source: Space-Track

COSMOS 2251 DEB, 33768 is space debris in LEO originally from a launch on Wed, 16 Jun 1993 UTC launched from the Plesetsk Missile And Space Complex (PKMTR). The debris from Iridium 33, an American commercial communications satellite, has been tracked extensively since its accidental collision with the defunct Russian satellite Cosmos 2251 in 2009. This event, occurring at high speed in low Earth orbit (LEO), generated thousands of pieces of space debris, significantly increasing the risk of further collisions. The Iridium 33 debris cloud has impacted space traffic management and orbital debris mitigation strategies, making it a subject of ongoing study in space situational awareness.

Loading next visibility...
Identifier
33768, 1993-036R
Orbit
LEO
Country
Flag of CISCIS
Related business
Manufacturer
Unknown
Mission
Spacecraft
Bus & Motor
Unknown
Mass
Unknown
Launch date (UTC)
1993-06-16 (33 years ago)
Launch vehicle
Unknown
Launch site
Plesetsk Missile And Space Complex (PKMTR)
Object type
Payload
Rocket body
Debris
Shape & HBR
Unknown shape, 0.5 m
Radar Cross Section
Medium (>0.1 m² and <1 m²)

Expand to show TLE details & history
Last TLE update: 10 hours ago

TLE from 10 hours ago
0 COSMOS 2251 DEB
1 33768U 93036R   26037.74146889  .00000778  00000-0  70644-3 0  9999
2 33768  74.0693 129.4813 0368389 274.9201 206.2301 13.58514625840565
Epoch: 2026-02-06T17:47Z
TLE epoch observation values (Epoch: 2026-02-06T17:47:42.912Z)
Latitude
57.0389°
Longitude
-120.29897°
Altitude
1,297.366 km
Speed
7.092 km/s
True Right ascension
18h 54m 01s
True Declination
56° 53' 34"
Sunlit
Object was in daylight at epoch
Visualization orbit readout
Latitude
Unknown
Longitude
Unknown
Altitude
Unknown
Speed
Unknown
Apparent Right ascension
Unknown
Apparent Declination
Unknown
Sunlit
N/A
Visualization observer readout
Local Sidereal Time
05:57:24
Azimuth
Unknown
Elevation
Unknown
Doppler factor
Unknown
Orbital elements
Apogee altitude
1,312.03 km
Perigee altitude
765.567 km
Semi-major axis
7,416.935 km
Eccentricity
0.03684
Inclination
74.0693°
RAAN
129.4813°
Arg. of periapsis
274.9201°
True anomaly
204.43874°
Mean anomaly
206.2301°
Eccentric anomaly
205.32717°
Mean motion
3.39787 °/min
Orbital period
105.95 mins
BSTAR
0.00070644
Loading maneuver chart data...
Computing Atmospheric mass density...

Documentation

Showing up to 5 results
|